sat.trackr.live / text

‹ back to catalog

STARLINK-33595

NORAD 62766 · 2025-015J

PAYLOAD ACTIVE UNKNOWN

§ Identity

Operator
Country
US
Launch date
2025-01-21
Launch site
AFWTR
Launch vehicle
Mass (kg)
RCS (m²)

Purposes: comms

External: N2YO · Heavens-Above · Gunter

§ Orbital elements

Epoch: 2026-05-24T19:16:18.696288Z

Period
93.85 min
Inclination
53.1597°
Eccentricity
0.0001577
Mean motion
15.34406141 rev/d
Perigee alt
461.6 km
Apogee alt
463.8 km
Semi-major
6,840.8 km
B*
6.6523e-4
RAAN
328.2693°
Arg perigee
100.4387°
Mean anomaly
259.6794°
Rev number
7,614

§ Raw data

STARLINK-335951 62766U 25015J   26144.80299417  .00022171  00000+0  66523-3 0  99942 62766  53.1597 328.2693 0001577 100.4387 259.6794 15.34406141 76144

JSON: /api/v1/satellites/62766 · /tle

For live sub-satellite position, see the globe view (requires WebGL).

§ Visibility from observer

Set your observer location to see the next 7 days of passes ≥ 10°. The values pass through the URL so the page stays shareable.

No JS? Fill the form by hand. The geolocation button needs JavaScript.